Regional Weather Roundup
Issued by NWS

Home | Current Version | Previous Version | Text Only | Print | Product List | Glossary On
Versions: 1 2 3 4 5 6 7 8 9 10 11 12 13 14 15 16 17 18 19 20 21 22 23 24 25 26 27 28 29 30 31 32 33 34 35 36 37 38 39 40 41 42 43 44 45 46 47 48 49 50
000
ASUS45 KABQ 290610
RWRNM
NEW MEXICO REGIONAL WEATHER ROUNDUP
NATIONAL WEATHER SERVICE ALBUQUERQUE NM
1200 AM MDT SUN MAY 29 2016

NOTE: "FAIR" MEANS FEW OR NO CLOUDS BELOW 12,000 FEET AGL WITH NO
       SIGNIFICANT WEATHER OR OBSTRUCTIONS TO VISION.

      THIS PRODUCT IS RELEASED AS TWO VERSIONS.  ONE VERSION NEAR
      THE TOP OF THE HOUR CONTAINING PRELIMINARY DATA FROM ALBUQUERQUE
      AND OTHER STATIONS.  A FINAL VERSION WITH ADDITIONAL DATA IS
      ISSUED ABOUT 10 MINUTES AFTER THE HOUR.

NMZ501-503-504-510>518-290700-
NORTHWEST PLATEAU/NORTHCENTRAL MOUNTAINS

CITY           SKY/WX    TMP DP  RH WIND       PRES   REMARKS
FARMINGTON     FAIR      58  28  32 NE5       30.10R
6HR MIN TEMP:  56; 6HR MAX TEMP:  76;

LOS ALAMOS     FAIR      59  23  24 CALM      30.22S
SANTA FE       FAIR      55  21  26 NE6       30.16R
6HR MIN TEMP:  51; 6HR MAX TEMP:  77;

TAOS           FAIR      46  25  42 NE8       30.24R
ANGEL FIRE     FAIR      33  25  74 CALM      30.33S

$$
NMZ402-403-502-505>509-290700-
WESTCENTRAL MOUNTAINS/SOUTHWEST MOUNTAINS

CITY           SKY/WX    TMP DP  RH WIND       PRES   REMARKS
GALLUP         FAIR      59  30  33 SW3       30.14F
6HR MIN TEMP:  59; 6HR MAX TEMP:  77; 6HR PCP:  0.01;

GRANTS         FAIR      55  23  28 SW8       30.15F
SILVER CITY      N/A     63   5  10 NW8       30.12R

$$
NMZ407-409-411-412-290700-
SOUTHERN DESERTS

CITY           SKY/WX    TMP DP  RH WIND       PRES   REMARKS
LORDSBURG      FAIR      68   3   8 SW10      30.04R
DEMING         FAIR      61   5  10 CALM      30.04R
6HR MIN TEMP:  60; 6HR MAX TEMP:  87;

LAS CRUCES     FAIR      56  10  15 W3        30.03S
HOLLOMAN AFB   FAIR      62  10  13 E10       30.00S
ALAMOGORDO     FAIR      64   9  11 E9        30.01F
T OR C         FAIR      64   8  11 NW7       30.04S
6HR MIN TEMP:  63; 6HR MAX TEMP:  84;


$$
NMZ519>523-290700-
CENTRAL VALLEYS/CENTRAL HIGHLANDS

CITY           SKY/WX    TMP DP  RH WIND       PRES   REMARKS
ALBUQUERQUE    MOCLDY    68  23  18 N7        30.10R
6HR MIN TEMP:  67; 6HR MAX TEMP:  81;

DOUBLE EAGLE   FAIR      65  22  19 SE5       30.13F
MORIARTY ARPT  FAIR      44  18  36 CALM      30.18R
6HR MIN TEMP:  41; 6HR MAX TEMP:  77;

CLINES CORNERS FAIR      49  20  31 S9        30.20S
6HR MIN TEMP:  49; 6HR MAX TEMP:  72;

BELEN          FAIR      65  11  12 SE7       30.08S
6HR MIN TEMP:  65; 6HR MAX TEMP:  82;

SOCORRO        FAIR      61  12  14 S5        30.06S
6HR MIN TEMP:  61; 6HR MAX TEMP:  83;


$$
NMZ524>526-539-540-290700-
SOUTHCENTRAL MOUNTAINS

CITY           SKY/WX    TMP DP  RH WIND       PRES   REMARKS
RUIDOSO          N/A     57   9  14 SW3       30.23S

$$
NMZ527>531-290700-
NORTHEAST HIGHLANDS/NORTHEAST PLAINS

CITY           SKY/WX    TMP DP  RH WIND       PRES   REMARKS
LAS VEGAS      FAIR      52  26  36 S8        30.21S
6HR MIN TEMP:  50; 6HR MAX TEMP:  71;

RATON          FAIR      52  33  48 NE12      30.19R
6HR MIN TEMP:  51; 6HR MAX TEMP:  67;

CLAYTON        FAIR      61  44  53 E9        30.16R
6HR MIN TEMP:  57; 6HR MAX TEMP:  78;


$$
NMZ532>537-290700-
EASTCENTRAL PLAINS

CITY           SKY/WX    TMP DP  RH WIND       PRES   REMARKS
TUCUMCARI      FAIR      64  42  44 SE5       30.04S
6HR MIN TEMP:  60; 6HR MAX TEMP:  86;

CANNON AFB     FAIR      62  49  61 SE13      30.08S
6HR MIN TEMP:  62; 6HR MAX TEMP:  83; 6HR PCP: TRACE;

CLOVIS AIRPORT FAIR      63  46  55 E13       30.08S

$$
NMZ028-029-538-290700-
SOUTHEAST PLAINS

CITY           SKY/WX    TMP DP  RH WIND       PRES   REMARKS
ROSWELL        FAIR      68  22  17 W3        30.01R
6HR MIN TEMP:  65; 6HR MAX TEMP:  90;

ARTESIA        FAIR      68  27  21 S8        30.00S
CARLSBAD       FAIR      71  54  54 S5        29.97F
6HR MIN TEMP:  69; 6HR MAX TEMP:  92;

HOBBS          FAIR      73  59  60 SE10      30.04S


$$



USA.gov is the U.S. government's official web portal to all federal, state and local government web resources and services.